Weather WX

World > North America > United States > Ohio

New Market, Ohio Regional Weather

Lat: 39.14N, Lon: 83.67W
Wx Zone: OHZ080
Warning FLW WEATHER ALERT - (More Info. Click Here) Warning
Feedback

New Market, OH Regional Weather

Expires:201906241400;;001300
ASUS41 KCLE 241312
RWRCLE
OHIO REGIONAL WEATHER ROUNDUP
NATIONAL WEATHER SERVICE WILMINGTON, OH
900 AM EDT MON JUN 24 2019

NOTE: "FAIR" INDICATES FEW OR NO CLOUDS BELOW 12,000 FEET WITH NO
SIGNIFICANT WEATHER AND/OR OBSTRUCTIONS TO VISIBILITY.


OHZ042-051>053-060>062-070>072-077>081-241400-
  SOUTHWEST OHIO
  
CITY           SKY/WX    TMP DP  RH WIND       PRES   REMARKS
CINC-COVINGTON PTSUNNY   73  67  81 SW14G20   29.81S                  
CINC-LUNKEN    FAIR      74  69  85 S10       29.82R                  
HAMILTON       PTSUNNY   74  68  81 SW7       29.81S                  
DAYTON         PTSUNNY   72  66  81 S12       29.80S                  
WRIGHT-PAT AFB PTSUNNY   73  67  81 S14       29.80S                  
DAYTON GENERAL FAIR      75  67  76 SW12      29.81R                  
WILMINGTON     FAIR      72  68  87 SW13G20   29.82R                  
$$


SKY/WX - Weather  TMP - Temperature  DP - Dew Point  RH - Relative Humidity
WIND - Wind Direction/Speed PRES - Barometric Pressure VSB - Visibility
WCI - Wind Chill Index E13G22 Wind - East Wind 13 mph/Gusts of 22 mph